User: anonymous   Login
Location: Pine Mountain Observatory
(43.7910°N, 120.9377°W)
Time: 15:38:10
(UTC-08:00)
Language:

APEX - Orbit

View from above orbital plane
View from above orbital plane
View from above satellite
View from above satellite

Ground track
Ground track

The orbit data is extracted from the following two-line orbital elements,

1 23191U 94046A   14325.79350451  .00031461  00000-0  12695-2 0   584
2 23191 069.9189 197.1285 0717593 089.5225 029.0364 14.09568535982689
Epoch (UTC): 21 November 2014 19:02:38
Eccentricity: 0.0717593
inclination: 69.9189°
perigee height: 341 km
apogee height: 1380 km
right ascension of ascending node: 197.1285°
argument of perigee: 89.5225°
revolutions per day: 14.09568535
mean anomaly at epoch: 29.0364°
orbit number at epoch: 98268

The dashed part of the orbit path shows where the satellite is in the earth's shadow,  

DLR